sat.trackr.live / text

‹ back to catalog

STARLINK-5159

NORAD 53974 · 2022-125L

PAYLOAD ACTIVE UNKNOWN

§ Identity

Operator
Country
US
Launch date
2022-10-05
Launch site
AFWTR
Launch vehicle
Mass (kg)
RCS (m²)

Purposes: comms

External: N2YO · Heavens-Above · Gunter

§ Orbital elements

Epoch: 2026-05-24T16:49:03.680256Z

Period
95.44 min
Inclination
53.2133°
Eccentricity
0.0001620
Mean motion
15.08841338 rev/d
Perigee alt
538.6 km
Apogee alt
540.9 km
Semi-major
6,917.9 km
B*
1.0416e-4
RAAN
222.4962°
Arg perigee
90.7741°
Mean anomaly
269.3437°
Rev number
20,108

§ Raw data

STARLINK-51591 53974U 22125L   26144.70073704  .00001370  00000+0  10416-3 0  99902 53974  53.2133 222.4962 0001620  90.7741 269.3437 15.08841338201087

JSON: /api/v1/satellites/53974 · /tle

For live sub-satellite position, see the globe view (requires WebGL).

§ Visibility from observer

Set your observer location to see the next 7 days of passes ≥ 10°. The values pass through the URL so the page stays shareable.

No JS? Fill the form by hand. The geolocation button needs JavaScript.